• In Belarus
  • List of Countries
  • For 7 days
  • Water Temperature
  • Satellite Maps
  • Weather Map
  • Weather Widgets
  • user-avatar
    Login

    Hourly Weather Zuchlow

    Today, 21 February, Thursday

    Time Temperature Precipitation Wind Pressure Humidity
    00:00 +5°C° 0 mm 3 mps 760 mmHg 82%
    01:00 +5°C° 0 mm 3 mps 760 mmHg 84%
    02:00 +4°C° 0 mm 3 mps 759 mmHg 86%
    03:00 +4°C° 0 mm 3 mps 759 mmHg 87%
    04:00 +3°C° 0 mm 3 mps 759 mmHg 88%
    05:00 +3°C° 0 mm 3 mps 759 mmHg 88%
    06:00 +3°C° 0 mm 4 mps 759 mmHg 89%
    07:00 +4°C° 0 mm 4 mps 759 mmHg 88%
    08:00 +4°C° 0 mm 4 mps 759 mmHg 85%
    09:00 +5°C° 0 mm 5 mps 759 mmHg 82%
    10:00 +6°C° 0 mm 5 mps 759 mmHg 78%
    11:00 +6°C° 0.5 mm 5 mps 759 mmHg 79%
    12:00 +6°C° 0.5 mm 5 mps 759 mmHg 80%
    13:00 +4°C° 0 mm 6 mps 759 mmHg 82%
    14:00 +5°C° 0.8 mm 6 mps 758 mmHg 82%
    15:00 +6°C° 0.8 mm 5 mps 758 mmHg 81%
    16:00 +6°C° 0.8 mm 5 mps 758 mmHg 81%
    17:00 +6°C° 0.1 mm 5 mps 758 mmHg 82%
    18:00 +6°C° 0.1 mm 5 mps 758 mmHg 83%
    19:00 +6°C° 0.1 mm 5 mps 758 mmHg 84%
    20:00 +6°C° 0.4 mm 5 mps 758 mmHg 86%
    21:00 +7°C° 0.4 mm 5 mps 757 mmHg 88%
    22:00 +7°C° 0.4 mm 5 mps 757 mmHg 90%
    23:00 +7°C° 0.3 mm 5 mps 757 mmHg 91%

    Tomorrow, 22 February, Friday

    Time Temperature Precipitation Wind Pressure Humidity
    00:00 +7°C° 0.3 mm 5 mps 758 mmHg 92%
    01:00 +7°C° 0.3 mm 5 mps 758 mmHg 92%
    02:00 +6°C° 0.3 mm 5 mps 758 mmHg 90%
    03:00 +4°C° 0.3 mm 6 mps 759 mmHg 88%
    04:00 +4°C° 0.3 mm 7 mps 760 mmHg 86%
    05:00 +2°C° 0 mm 7 mps 761 mmHg 83%
    06:00 +1°C° 0 mm 6 mps 762 mmHg 80%
    07:00 -2°C° 0 mm 6 mps 764 mmHg 76%
    08:00 -2°C° 0 mm 6 mps 765 mmHg 69%
    09:00 -2°C° 0 mm 6 mps 766 mmHg 61%
    10:00 -1°C° 0 mm 5 mps 768 mmHg 53%
    11:00 0°C° 0 mm 5 mps 768 mmHg 50%
    12:00 0°C° 0 mm 5 mps 769 mmHg 47%
    13:00 0°C° 0 mm 5 mps 770 mmHg 44%
    14:00 0°C° 0 mm 4 mps 770 mmHg 44%
    15:00 0°C° 0 mm 4 mps 770 mmHg 43%
    16:00 0°C° 0 mm 4 mps 771 mmHg 42%
    17:00 0°C° 0 mm 3 mps 771 mmHg 46%
    18:00 -1°C° 0 mm 3 mps 772 mmHg 50%
    19:00 -2°C° 0 mm 2 mps 773 mmHg 54%
    20:00 -2°C° 0 mm 2 mps 773 mmHg 54%
    21:00 -2°C° 0 mm 2 mps 774 mmHg 54%
    22:00 -3°C° 0 mm 2 mps 774 mmHg 54%
    23:00 -3°C° 0 mm 2 mps 774 mmHg 53%

    Day after tomorrow, 23 February, Saturday

    Time Temperature Precipitation Wind Pressure Humidity
    00:00 -3°C° 0 mm 2 mps 774 mmHg 52%
    01:00 -3°C° 0 mm 2 mps 774 mmHg 52%
    02:00 -3°C° 0 mm 2 mps 774 mmHg 51%
    03:00 -3°C° 0 mm 2 mps 774 mmHg 51%
    04:00 -3°C° 0 mm 2 mps 774 mmHg 51%
    05:00 -3°C° 0 mm 2 mps 774 mmHg 51%
    06:00 -1°C° 0 mm 1 mps 774 mmHg 50%
    07:00 -2°C° 0 mm 1 mps 774 mmHg 50%
    08:00 -1°C° 0 mm 1 mps 774 mmHg 44%
    09:00 -2°C° 0 mm 2 mps 775 mmHg 39%
    10:00 -1°C° 0 mm 2 mps 775 mmHg 33%
    11:00 +1°C° 0 mm 2 mps 774 mmHg 30%
    12:00 +2°C° 0 mm 2 mps 774 mmHg 27%
    13:00 +2°C° 0 mm 2 mps 774 mmHg 24%
    14:00 +2°C° 0 mm 2 mps 774 mmHg 25%
    15:00 +4°C° 0 mm 1 mps 773 mmHg 26%
    16:00 +4°C° 0 mm 1 mps 773 mmHg 27%
    17:00 +3°C° 0 mm 1 mps 773 mmHg 30%
    18:00 +2°C° 0 mm 1 mps 773 mmHg 33%
    19:00 +1°C° 0 mm 1 mps 773 mmHg 36%
    20:00 -2°C° 0 mm 2 mps 773 mmHg 37%
    21:00 -2°C° 0 mm 2 mps 773 mmHg 37%
    22:00 -2°C° 0 mm 2 mps 772 mmHg 38%
    23:00 -2°C° 0 mm 2 mps 772 mmHg 38%

    24 February, Sunday

    Time Temperature Precipitation Wind Pressure Humidity
    00:00 -2°C° 0 mm 2 mps 772 mmHg 38%
    01:00 -2°C° 0 mm 2 mps 772 mmHg 38%
    02:00 0°C° 0 mm 1 mps 772 mmHg 37%
    03:00 0°C° 0 mm 1 mps 771 mmHg 36%
    04:00 0°C° 0 mm 1 mps 771 mmHg 35%
    05:00 0°C° 0 mm 1 mps 771 mmHg 35%
    06:00 0°C° 0 mm 1 mps 771 mmHg 35%
    07:00 0°C° 0 mm 1 mps 771 mmHg 34%
    08:00 +1°C° 0 mm 2 mps 771 mmHg 33%
    09:00 +2°C° 0 mm 2 mps 771 mmHg 31%
    10:00 +4°C° 0 mm 2 mps 771 mmHg 30%
    11:00 +4°C° 0 mm 3 mps 771 mmHg 30%
    12:00 +5°C° 0 mm 3 mps 770 mmHg 30%
    13:00 +7°C° 0 mm 3 mps 770 mmHg 31%
    14:00 +7°C° 0 mm 3 mps 770 mmHg 36%
    15:00 +7°C° 0 mm 3 mps 770 mmHg 41%
    16:00 +7°C° 0 mm 2 mps 770 mmHg 46%
    17:00 +5°C° 0 mm 2 mps 770 mmHg 51%
    18:00 +4°C° 0 mm 2 mps 770 mmHg 56%
    19:00 +3°C° 0 mm 2 mps 770 mmHg 60%
    20:00 +2°C° 0 mm 2 mps 770 mmHg 63%
    21:00 +2°C° 0 mm 2 mps 770 mmHg 66%
    22:00 +2°C° 0 mm 2 mps 771 mmHg 68%
    23:00 +2°C° 0 mm 2 mps 771 mmHg 70%

    25 February, Monday

    Time Temperature Precipitation Wind Pressure Humidity
    00:00 +1°C° 0 mm 3 mps 771 mmHg 72%
    01:00 0°C° 0 mm 3 mps 771 mmHg 74%
    02:00 0°C° 0 mm 3 mps 771 mmHg 75%
    03:00 0°C° 0 mm 3 mps 771 mmHg 77%
    04:00 0°C° 0 mm 3 mps 771 mmHg 78%
    05:00 0°C° 0 mm 3 mps 771 mmHg 80%
    06:00 0°C° 0 mm 3 mps 771 mmHg 81%
    07:00 0°C° 0 mm 3 mps 771 mmHg 82%
    08:00 +1°C° 0 mm 3 mps 771 mmHg 76%
    09:00 +3°C° 0 mm 3 mps 771 mmHg 71%
    10:00 +4°C° 0 mm 3 mps 771 mmHg 65%
    11:00 +7°C° 0 mm 3 mps 771 mmHg 62%
    12:00 +8°C° 0 mm 3 mps 771 mmHg 58%
    13:00 +9°C° 0 mm 3 mps 770 mmHg 54%
    14:00 +10°C° 0 mm 3 mps 770 mmHg 56%
    15:00 +10°C° 0 mm 3 mps 770 mmHg 57%
    16:00 +10°C° 0 mm 2 mps 770 mmHg 58%
    17:00 +9°C° 0 mm 2 mps 770 mmHg 63%
    18:00 +8°C° 0 mm 2 mps 769 mmHg 68%
    19:00 +6°C° 0 mm 2 mps 769 mmHg 73%
    20:00 +6°C° 0 mm 2 mps 769 mmHg 75%
    21:00 +5°C° 0 mm 2 mps 769 mmHg 78%
    22:00 +4°C° 0 mm 3 mps 769 mmHg 80%
    23:00 +4°C° 0 mm 3 mps 768 mmHg 81%

    26 February, Tuesday

    Time Temperature Precipitation Wind Pressure Humidity
    00:00 +3°C° 0 mm 3 mps 768 mmHg 82%
    01:00 +3°C° 0 mm 3 mps 768 mmHg 84%
    02:00 +3°C° 0 mm 3 mps 767 mmHg 85%
    03:00 +3°C° 0 mm 3 mps 767 mmHg 86%
    04:00 +3°C° 0 mm 3 mps 766 mmHg 88%
    05:00 +3°C° 0 mm 4 mps 766 mmHg 88%
    06:00 +1°C° 0 mm 4 mps 766 mmHg 89%
    07:00 +1°C° 0 mm 4 mps 765 mmHg 90%
    08:00 +4°C° 0 mm 4 mps 765 mmHg 82%
    09:00 +5°C° 0 mm 5 mps 765 mmHg 75%
    10:00 +7°C° 0 mm 5 mps 765 mmHg 67%
    11:00 +8°C° 0 mm 6 mps 764 mmHg 63%
    12:00 +9°C° 0 mm 6 mps 764 mmHg 58%
    13:00 +10°C° 0 mm 6 mps 764 mmHg 54%
    14:00 +11°C° 0 mm 6 mps 763 mmHg 56%
    15:00 +11°C° 0 mm 6 mps 763 mmHg 58%
    16:00 +12°C° 0 mm 5 mps 762 mmHg 60%
    17:00 +10°C° 0 mm 5 mps 763 mmHg 66%
    18:00 +8°C° 0 mm 4 mps 763 mmHg 73%
    19:00 +8°C° 0 mm 3 mps 763 mmHg 79%
    20:00 +8°C° 0 mm 3 mps 763 mmHg 83%
    21:00 +7°C° 0 mm 3 mps 763 mmHg 88%
    22:00 +5°C° 0 mm 3 mps 764 mmHg 93%
    23:00 +5°C° 0 mm 3 mps 764 mmHg 94%
    Show more